Colorado Springs, CO

2:32 AM MDT on June 26, 2017 (GMT -0600)
City Of Colorado Springs Municipal

Weather History for KCOS - July, 2013

Change the Weather History Date:

Thursday, July 11, 2013

  Actual Average Record
Temperature  
Mean Temperature 71 °F 71 °F  
Max Temperature 86 °F 85 °F 99 °F (1954)
Min Temperature 56 °F 57 °F 46 °F (1902)
Degree Days  
Heating Degree Days 0 0  
Month to date heating degree days 2 3  
Since 1 June heating degree days 27 82  
Since 1 July heating degree days 2 3  
Cooling Degree Days 6 6  
Month to date cooling degree days 86 64  
Year to date cooling degree days 290 157  
Since 1 June cooling degree days 268 147  
Growing Degree Days 20 (Base 50)    
Moisture  
Dew Point 55 °F    
Average Humidity 66    
Maximum Humidity 100    
Minimum Humidity 32    
Precipitation  
Precipitation T in 0.08 in 2.01 in (1967)
Month to date precipitation 1.64 0.83  
Year to date precipitation 4.97 8.44  
Snow  
Snow 0.00 in 0.00 in 0.00 in (2002)
Month to date snowfall 0.0 0.0  
Since 1 June snowfall 0.0 0.0  
Since 1 July snowfall 0.0 0.0  
Snow Depth 0.00 in    
Sea Level Pressure  
Sea Level Pressure 30.02 in    
Wind  
Wind Speed 9 mph (ESE)    
Max Wind Speed 23 mph    
Max Gust Speed 29 mph    
Visibility 7 miles    
Events Fog    
T = Trace of Precipitation, MM = Missing Value Source: NWS Daily Summary

Daily Weather History Graph

Daily Weather History Graph

Search for Another Location

Airport or City:

Trip Planner

Search our weather history database for the weather conditions in past years. The results will help you decide how hot, cold, wet, or windy it might be!

Date:

Astronomy

Jul. 11, 2013 Rise Set
Actual Time 5:43 AM MDT 8:24 PM MDT
Civil Twilight 5:12 AM MDT 8:56 PM MDT
Nautical Twilight 4:32 AM MDT 9:35 PM MDT
Astronomical Twilight 3:48 AM MDT 10:19 PM MDT
Moon 9:01 AM MDT (7/11) 10:09 PM MDT (7/11)
Length of Visible Light 15h 44m
Length of Day
14h 41m
Waxing Crescent, 11% of the Moon is Illuminated
Jul 11
Waxing Crescent
Jul 15
First Quarter
Jul 22
Full
Jul 29
Last Quarter
Aug 6
New

Hourly Weather History & Observations

Time (MDT) Temp. Heat Index Dew Point Humidity Pressure Visibility Wind Dir Wind Speed Gust Speed Precip Events Conditions
12:54 AM 63.0 °F - 55.0 °F 75% 30.05 in 10.0 mi South 11.5 mph - 0.00 in   Scattered Clouds
1:54 AM 61.0 °F - 55.0 °F 81% 30.05 in 10.0 mi SE 10.4 mph - N/A   Partly Cloudy
2:54 AM 57.9 °F - 55.9 °F 93% 30.06 in 10.0 mi ESE 8.1 mph - N/A   Clear
3:54 AM 57.9 °F - 55.9 °F 93% 30.10 in 6.0 mi East 8.1 mph - N/A   Partly Cloudy
4:27 AM 57.2 °F - 55.4 °F 94% 30.27 in 5.0 mi Calm Calm - N/A   Mostly Cloudy
4:54 AM 57.9 °F - 55.9 °F 93% 30.05 in 3.0 mi Calm Calm - N/A   Overcast
5:35 AM 57.2 °F - 55.4 °F 94% 30.26 in 2.5 mi Calm Calm - N/A   Overcast
5:45 AM 57.2 °F - 55.4 °F 94% 30.25 in 1.2 mi Calm Calm - N/A   Overcast
5:54 AM 57.9 °F - 55.9 °F 93% 30.03 in 1.0 mi NNE 3.5 mph - N/A   Overcast
6:21 AM 57.2 °F - 55.4 °F 94% 30.26 in 0.5 mi ENE 3.5 mph - N/A Fog Fog
6:33 AM 57.2 °F - 55.4 °F 94% 30.26 in 0.2 mi ENE 6.9 mph - N/A Fog Fog
6:51 AM 57.2 °F - 55.4 °F 94% 30.25 in 0.5 mi ENE 5.8 mph - N/A Fog Fog
6:54 AM 55.9 °F - 55.0 °F 97% 30.01 in 0.5 mi ENE 5.8 mph - N/A Fog Fog
7:09 AM 57.2 °F - 55.4 °F 94% 30.25 in 0.2 mi ENE 5.8 mph - N/A Fog Fog
7:44 AM 57.2 °F - 55.4 °F 94% 30.23 in 2.0 mi WNW 3.5 mph - N/A   Scattered Clouds
7:51 AM 57.2 °F - 57.2 °F 100% 30.23 in 5.0 mi Calm Calm - N/A   Scattered Clouds
7:54 AM 57.9 °F - 55.9 °F 93% 30.01 in 5.0 mi Calm Calm - N/A   Scattered Clouds
8:54 AM 64.0 °F - 57.0 °F 78% 30.00 in 8.0 mi Calm Calm - N/A   Partly Cloudy
9:54 AM 68.0 °F - 57.0 °F 68% 29.97 in 10.0 mi SSE 3.5 mph - N/A   Partly Cloudy
10:54 AM 71.1 °F - 57.9 °F 63% 29.96 in 10.0 mi ESE 5.8 mph - N/A   Partly Cloudy
11:54 AM 75.0 °F - 57.0 °F 53% 29.94 in 10.0 mi SSW 5.8 mph - N/A   Partly Cloudy
12:54 PM 79.0 °F - 57.9 °F 48% 29.90 in 10.0 mi South 5.8 mph - N/A   Scattered Clouds
1:54 PM 84.0 °F 83.0 °F 55.9 °F 38% 29.87 in 10.0 mi SE 15.0 mph - N/A   Scattered Clouds
2:54 PM 84.0 °F 82.5 °F 53.1 °F 34% 29.88 in 10.0 mi SE 13.8 mph - N/A   Scattered Clouds
3:54 PM 82.0 °F 82.0 °F 57.9 °F 44% 29.87 in 10.0 mi ESE 19.6 mph 27.6 mph N/A   Scattered Clouds
4:54 PM 84.9 °F 83.7 °F 55.9 °F 37% 29.83 in 10.0 mi ESE 18.4 mph 25.3 mph N/A   Scattered Clouds
5:54 PM 84.9 °F 83.3 °F 54.0 °F 34% 29.81 in 10.0 mi ESE 19.6 mph - N/A   Scattered Clouds
6:54 PM 84.9 °F - 51.1 °F 31% 29.81 in 10.0 mi SE 17.3 mph - N/A   Scattered Clouds
7:54 PM 81.0 °F - 52.0 °F 36% 29.82 in 10.0 mi ESE 11.5 mph - N/A   Scattered Clouds
8:54 PM 77.0 °F - 54.0 °F 45% 29.82 in 10.0 mi East 9.2 mph - N/A   Scattered Clouds
9:54 PM 75.0 °F - 55.9 °F 51% 29.82 in 10.0 mi East 11.5 mph - N/A   Partly Cloudy
10:54 PM 75.0 °F - 54.0 °F 48% 29.83 in 10.0 mi SE 6.9 mph - N/A   Partly Cloudy
11:54 PM 70.0 °F - 55.0 °F 59% 29.82 in 10.0 mi NE 11.5 mph - N/A   Mostly Cloudy